Weather History for Atlanta Fulton, GA

Change the Weather History Date:

Friday, September 20, 2013

  Actual Average Record
Temperature  
Mean Temperature 74 °F 72 °F  
Max Temperature 87 °F 82 °F 95 °F (2010)
Min Temperature 61 °F 61 °F 51 °F (2006)
Degree Days  
Heating Degree Days 0 0  
Month to date heating degree days 0 0  
Since 1 July heating degree days 0 0  
Cooling Degree Days 9 7  
Month to date cooling degree days 212 189  
Year to date cooling degree days 1533 1626  
Growing Degree Days 24 (Base 50)    
Moisture  
Dew Point 63 °F    
Average Humidity 72    
Maximum Humidity 100    
Minimum Humidity 43    
Precipitation  
Precipitation 0.00 in 0.12 in 0.46 in (1966)
Month to date precipitation 0.71 2.52  
Year to date precipitation 33.89 37.94  
Sea Level Pressure  
Sea Level Pressure 30.01 in    
Wind  
Wind Speed 3 mph (South)    
Max Wind Speed 9 mph    
Max Gust Speed 15 mph    
Visibility 9 miles    
Events      
T = Trace of Precipitation, MM = Missing Value Source: NWS Daily Summary

Daily Weather History Graph

Daily Weather History Graph

Search for Another Location

Airport:

Trip Planner

Search our weather history database for the weather conditions in past years. The results will help you decide how hot, cold, wet, or windy it might be!

Date:

Astronomy

Sep. 20, 2013 Rise Set
Actual Time 7:24 AM EDT 7:37 PM EDT
Civil Twilight 7:00 AM EDT 8:02 PM EDT
Nautical Twilight 6:30 AM EDT 8:31 PM EDT
Astronomical Twilight 6:01 AM EDT 9:00 PM EDT
Moon 8:17 PM EDT (9/20) 8:33 AM EDT (9/20)
Length of Visible Light 13h 02m
Length of Day
12h 12m
Full, 98% of the Moon is Illuminated
Sep 20
Full
Sep 26
Last Quarter
Oct 4
New
Oct 11
First Quarter
Oct 18
Full

Hourly Weather History & Observations

Time (EDT) Temp. Heat Index Dew Point Humidity Pressure Visibility Wind Dir Wind Speed Gust Speed Precip Events Conditions
12:53 AM 64.9 °F - 63.0 °F 93% 30.08 in 9.0 mi Calm Calm - N/A   Clear
1:53 AM 66.0 °F - 63.0 °F 90% 30.08 in 10.0 mi Calm Calm - N/A   Clear
2:53 AM 63.0 °F - 61.0 °F 93% 30.08 in 9.0 mi ENE 3.5 mph - N/A   Clear
3:53 AM 63.0 °F - 61.0 °F 93% 30.07 in 7.0 mi Calm Calm - N/A   Clear
4:53 AM 63.0 °F - 61.0 °F 93% 30.07 in 8.0 mi Calm Calm - N/A   Clear
5:53 AM 61.0 °F - 60.1 °F 97% 30.07 in 6.0 mi Calm Calm - N/A   Clear
6:53 AM 61.0 °F - 60.1 °F 97% 30.06 in 6.0 mi Calm Calm - N/A   Clear
7:53 AM 63.0 °F - 61.0 °F 93% 30.08 in 8.0 mi Calm Calm - N/A   Clear
8:53 AM 66.0 °F - 63.0 °F 90% 30.09 in 7.0 mi Calm Calm - N/A   Clear
9:53 AM 71.1 °F - 63.0 °F 75% 30.08 in 10.0 mi Calm Calm - N/A   Clear
10:53 AM 75.9 °F - 66.0 °F 71% 30.08 in 10.0 mi SW 8.1 mph - N/A   Clear
11:53 AM 80.1 °F 81.7 °F 64.0 °F 58% 30.06 in 10.0 mi South 4.6 mph - N/A   Clear
12:53 PM 82.0 °F 83.4 °F 64.0 °F 54% 30.04 in 10.0 mi Variable 4.6 mph - N/A   Clear
1:53 PM 82.9 °F 84.4 °F 64.0 °F 53% 30.01 in 10.0 mi SW 4.6 mph - N/A   Partly Cloudy
2:53 PM 84.9 °F 85.9 °F 63.0 °F 48% 29.97 in 10.0 mi Calm Calm - N/A   Mostly Cloudy
3:53 PM 84.9 °F 85.4 °F 62.1 °F 46% 29.94 in 10.0 mi South 6.9 mph - N/A   Scattered Clouds
4:53 PM 87.1 °F 87.8 °F 63.0 °F 44% 29.92 in 10.0 mi South 6.9 mph - N/A   Partly Cloudy
5:53 PM 86.0 °F 86.8 °F 63.0 °F 46% 29.91 in 10.0 mi South 5.8 mph - N/A   Partly Cloudy
6:53 PM 82.9 °F 84.0 °F 63.0 °F 51% 29.91 in 10.0 mi South 5.8 mph - N/A   Partly Cloudy
7:53 PM 80.1 °F 81.7 °F 64.0 °F 58% 29.91 in 10.0 mi SSE 4.6 mph - N/A   Clear
8:53 PM 79.0 °F - 64.0 °F 60% 29.92 in 10.0 mi SSE 4.6 mph - N/A   Clear
9:53 PM 77.0 °F - 64.0 °F 64% 29.93 in 10.0 mi SSE 6.9 mph - N/A   Clear
10:53 PM 77.0 °F - 64.0 °F 64% 29.92 in 10.0 mi South 6.9 mph - N/A   Clear
11:53 PM 75.9 °F - 64.0 °F 67% 29.92 in 10.0 mi South 4.6 mph - N/A   Clear